Hanford, WA
on Tuesday, November 20, 2012

Tuesday
Previous Day Next Day
Daily Summary
 ActualAverage (KMWH)Record (KMWH)
Temperature
Mean Temperature °F 36°F  
Max Temperature 57°F 44°F 55°F (1986)
Min Temperature 46°F 28°F -3°F (1985)
Degree Days
Heating Degree Days 12 29  
Month to date heating degree days 510  
Since 1 July heating degree days 1147  
Cooling Degree Days 0 0  
Month to date cooling degree days 0  
Year to date cooling degree days 615  
Growing Degree Days2 (Base °F )  
Moisture
Dew Point 43°F   
Average Humidity 72    
Maximum Humidity 86    
Minimum Humidity 56    
Precipitation
Precipitation 0.00 in 0.04 in 0.35 in (2003)
Month to date precipitation 0.77  
Year to date precipitation 7.24  
Wind
Wind Speed 17 mph   
Max Wind Speed 24 mph   
Max Gust Speed 32 mph   
Visibility 15 miles   
Events Rain   

Key: T is trace of precipitation, MM is missing value
Source: NWS Daily Summary
Time(PST)TemperatureDew PointHumidity Pressure Visibility Wind DirectionWind SpeedGust SpeedPrecipitationEvents Conditions
12:50 AM 52.3°F 44.2°F 74% 29.71 in 15.0 miles SSW 20.7 mph 29.9 mph N/A   Overcast
1:50 AM 51.4°F 44.4°F 77% 29.73 in 15.0 miles SW 19.6 mph - N/A   Overcast
2:50 AM 51.4°F 44.2°F 76% 29.73 in 15.0 miles SW 13.8 mph - N/A   Overcast
3:50 AM 54.0°F 44.2°F 70% 29.76 in 15.0 miles South 19.6 mph - N/A   Overcast
4:50 AM 53.8°F 44.2°F 70% 29.75 in 15.0 miles South 20.7 mph - N/A   Overcast
5:50 AM 54.0°F 43.7°F 68% 29.71 in 15.0 miles South 24.2 mph 32.2 mph N/A   Overcast
6:50 AM 50.9°F 46.0°F 83% 29.73 in 15.0 miles South 11.5 mph - N/A Rain Light Rain
7:50 AM 52.0°F 43.5°F 73% 29.72 in 15.0 miles South 20.7 mph - N/A Rain Light Rain
8:50 AM 52.5°F 43.7°F 72% 29.69 in 15.0 miles South 16.1 mph 25.3 mph 0.00 in Rain Light Rain
9:50 AM 52.3°F 45.5°F 78% 29.67 in 15.0 miles NE 6.9 mph - 0.00 in   Overcast
10:50 AM 50.7°F 46.8°F 86% 29.67 in 15.0 miles ESE 9.2 mph - 0.00 in Rain Light Rain
11:50 AM 50.9°F 46.9°F 86% 29.65 in 15.0 miles East 16.1 mph 27.6 mph 0.00 in   Mostly Cloudy
12:50 PM 55.8°F 48.9°F 78% 29.65 in 15.0 miles ENE 10.4 mph - N/A   Partly Cloudy
1:50 PM 57.9°F 46.6°F 66% 29.65 in 15.0 miles South 18.4 mph 31.1 mph 0.00 in Rain Light Rain Showers
2:50 PM 56.5°F 45.1°F 66% 29.65 in 15.0 miles South 16.1 mph - N/A   Mostly Cloudy
3:50 PM 54.3°F 44.6°F 70% 29.68 in 15.0 miles SSW 13.8 mph - N/A   Mostly Cloudy
4:50 PM 52.9°F 37.6°F 56% 29.69 in 15.0 miles SW 16.1 mph - N/A   Scattered Clouds
5:50 PM 50.5°F 37.4°F 61% 29.71 in 15.0 miles WSW 11.5 mph - N/A   Mostly Cloudy
6:50 PM 50.0°F 37.6°F 62% 29.71 in 15.0 miles WSW 18.4 mph - N/A   Partly Cloudy
10:50 PM 48.0°F 37.0°F 66% 29.69 in 15.0 miles West 5.8 mph - 0.00 in Rain Light Rain
11:50 PM 46.0°F 39.2°F 77% 29.69 in 15.0 miles West 8.1 mph - 0.00 in Rain Light Rain
Moon Phase
Nov. 20 Nov. 28 Dec. 06 Dec. 13 Dec. 20
Sunrise:07:08 AM (PST) Moon Rise:12:32 PM (PST)
Sunset:04:19 PM (PST) Moon Set:No Moon Set/

Copyright © 2014 The Weather Underground, Inc.